Home > Weather > May Pen > Past weeks

Flag for Jamaica Weather for the Past 2 Weeks in May Pen, Jamaica

Now
81 °F

Partly sunny.


Feels Like: 82 °F
Forecast: N/A
Wind: 9 mph from Southeast

Location: Kingston / Norman Manley

Current Time: Feb 12, 2016 at 6:19:08 PM

Latest Report: Feb 12, 2016 at 5:00 PM


Visibility: N/A

Pressure: 29.98 "Hg

Humidity: 58%

Dew point: 64 °F

Location of May PenLocation

Historic Weather in May Pen — Graph

°F

May Pen Temperature Yesterday

Maximum temperature yesterday: 90 °F (at 1:00 PM)
Minimum temperature yesterday: 77 °F (at 2:00 AM)
Average temperature yesterday: 80 °F

High & Low Weather Summary for the Past Weeks

 TemperatureHumidityPressure
High90 °F (Feb 11, 1:00 PM)89% (Jan 30, 7:00 PM)30.09 "Hg (Jan 30, 7:00 PM)
Low75 °F (Jan 31, 6:00 AM)48% (Feb 5, 7:00 PM)29.86 "Hg (Feb 2, 3:00 PM)
Average80 °F72%29.98 "Hg
* Reported Jan 28 5:00 PM — Feb 12 5:00 PM, May Pen, Weather by CustomWeather, © 2016

Note: Actual official high and low records may vary slightly from our data, if they occured in-between our weather recording intervals... More about our weather records

Advertising

May Pen Weather History for the Previous 24 Hours

 ConditionsComfort  
Time TempWeatherWind HumidityBarometerVisibility
5:00 PM
Fri, Feb 12
81 °FPartly sunny.9 mph58%29.98 "HgN/A
4:00 PM82 °FPartly sunny.3 mph51%29.98 "HgN/A
3:00 PM77 °FScattered showers. Broken clouds.18 mph69%29.98 "HgN/A
2:00 PM77 °FScattered showers. Broken clouds.29 mph74%29.98 "HgN/A
1:00 PM79 °FPartly sunny.9 mph84%30.01 "HgN/A
12:00 PM77 °FPartly sunny.10 mph83%30.07 "HgN/A
11:00 AM79 °FScattered showers. Partly sunny.5 mph74%30.07 "Hg5 mi
10:00 AM79 °FSprinkles. Partly sunny.3 mph79%30.07 "HgN/A
9:00 AM79 °FPartly sunny.8 mph79%30.07 "HgN/A
8:00 AM79 °FPartly sunny.6 mph74%30.04 "HgN/A
7:00 AM77 °FPartly sunny.9 mph83%30.04 "HgN/A
6:00 AM77 °FScattered showers. Passing clouds.8 mph83%30.04 "HgN/A
5:00 AM77 °FPassing clouds.2 mph79%30.01 "HgN/A
4:00 AM77 °FPassing clouds.3 mph79%30.01 "HgN/A
3:00 AM77 °FPassing clouds.7 mph79%30.01 "HgN/A
2:00 AM77 °FPassing clouds.8 mph79%30.01 "HgN/A
1:00 AM77 °FPassing clouds.6 mph83%30.04 "HgN/A
12:00 AM79 °FPassing clouds.6 mph79%30.04 "HgN/A
11:00 PM
Thu, Feb 11
79 °FPassing clouds.5 mph79%30.07 "HgN/A
10:00 PM81 °FPassing clouds.2 mph74%30.07 "HgN/A
9:00 PM79 °FPassing clouds.3 mph79%30.07 "HgN/A
8:00 PM79 °FPassing clouds.5 mph79%30.07 "HgN/A
7:00 PM79 °FPassing clouds.5 mph84%30.04 "HgN/A
6:00 PM79 °FPartly sunny.10 mph79%30.04 "HgN/A
Weather by CustomWeather, © 2016

See weather overviewHow to use our weather pages